Wind From: 11-12-2017 12:03 Until: 12-12-2017 06:00 warning for: Wind Level: Orange info button

Power and phone distribution networks may be disrupted for relatively long periods., Roofs and chimneys can be damaged. , Tree branches may break. , Vehicles can be deported. , Traffic may be disrupted, particularly on secondary roads in forest areas. Limit your trips. , Limit your speed in highway driving, especially if you drive a vehicle or hitch sensitive to wind. , Do not go for walks in forests or along the coast., In town, be vigilant against possible falling objects., Do not work on roofs and do not touch any electrical line fallen on the ground., Store or secure sensitive objects to wind or likely to be damaged., Always install power generators outside buildings. 


Meteo18 Weather Cam more information Meteo18 Weather Cam


Thunder radar more information blitzortung!


Rain radar more information rain snow radar


Visit our other weather sites:

Template documentation
and downloads

And another site



Weather Underground History page Text

Daily Summary for March 13, 2017 Units:  English    Metric   Both
« Previous Day
Next Day »
Daily Weekly Monthly Yearly Custom
  High: Low: Average:
Temperature: 59.7 °F 44.2 °F 51.4 °F
Dew Point: 48 °F 40.6 °F 44.2 °F
Humidity: 93 % 51 % 78 %
Wind Speed: 13 mph 0 mph 5 mph
Wind Gust: 20 mph - -
Wind:- - SW
Pressure: 30.5 in 30.1 in -
Precipitation: 0 in    
Historical Graphs
 
 
Tabular Data for March 13, 2017
Time Temperature Dew Point Pressure Wind Wind Speed Wind Gust Humidity Rainfall Rate (Hourly)
00:02 50.2 °F 48 °F 30.1 in West 4 mph 11 mph 92 % 0 in
00:07 50.2 °F 47.7 °F 30.1 in WNW 9 mph 11 mph 91 % 0 in
00:12 50.2 °F 47.7 °F 30.1 in WNW 2 mph 11 mph 91 % 0 in
00:17 50 °F 47.8 °F 30.1 in WNW 2 mph 11 mph 92 % 0 in
00:22 49.8 °F 47.3 °F 30.1 in NW 3 mph 10 mph 91 % 0 in
00:32 49.6 °F 47.5 °F 30.1 in NW 3 mph 10 mph 92 % 0 in
00:37 49.5 °F 47.3 °F 30.1 in WNW 7 mph 10 mph 92 % 0 in
00:42 49.5 °F 47.3 °F 30.1 in NW 2 mph 8 mph 92 % 0 in
00:52 49.3 °F 47.1 °F 30.1 in NW 5 mph 11 mph 92 % 0 in
00:57 49.3 °F 47.1 °F 30.1 in NNW 4 mph 11 mph 92 % 0 in
01:02 49.3 °F 47.1 °F 30.1 in NW 4 mph 12 mph 92 % 0 in
01:12 49.1 °F 46.9 °F 30.1 in NW 3 mph 12 mph 92 % 0 in
01:17 48.9 °F 46.8 °F 30.1 in WNW 5 mph 13 mph 92 % 0 in
01:22 48.9 °F 46.8 °F 30.1 in NNW 6 mph 13 mph 92 % 0 in
01:32 48.7 °F 46.6 °F 30.1 in NW 6 mph 11 mph 92 % 0 in
01:37 48.9 °F 46.8 °F 30.1 in NNW 7 mph 11 mph 92 % 0 in
01:42 48.9 °F 46.8 °F 30.1 in NNW 5 mph 12 mph 92 % 0 in
01:47 48.9 °F 46.4 °F 30.1 in NNW 6 mph 12 mph 91 % 0 in
01:52 48.9 °F 46.4 °F 30.1 in North 3 mph 13 mph 91 % 0 in
01:57 48.9 °F 46.4 °F 30.1 in NW 7 mph 13 mph 91 % 0 in
02:02 48.9 °F 46.4 °F 30.1 in NW 7 mph 13 mph 91 % 0 in
02:07 48.9 °F 46.4 °F 30.1 in North 6 mph 13 mph 91 % 0 in
02:12 48.9 °F 46.4 °F 30.1 in NNE 10 mph 13 mph 91 % 0 in
02:17 48.7 °F 46.2 °F 30.1 in WNW 9 mph 13 mph 91 % 0 in
02:22 48.7 °F 46.2 °F 30.1 in NW 11 mph 14 mph 91 % 0 in
02:32 48.7 °F 46.2 °F 30.1 in North 7 mph 16 mph 91 % 0 in
02:37 48.7 °F 46.2 °F 30.1 in NW 4 mph 16 mph 91 % 0 in
02:42 48.7 °F 46.2 °F 30.1 in NNW 10 mph 15 mph 91 % 0 in
02:52 48.6 °F 46 °F 30.1 in NNW 9 mph 15 mph 91 % 0 in
03:02 48.6 °F 46 °F 30.1 in NNW 5 mph 13 mph 91 % 0 in
03:07 48.4 °F 45.9 °F 30.1 in NNW 10 mph 13 mph 91 % 0 in
03:12 48.4 °F 45.9 °F 30.1 in North 10 mph 17 mph 91 % 0 in
03:17 48.4 °F 45.9 °F 30.1 in NNE 6 mph 17 mph 91 % 0 in
03:22 48.2 °F 45.7 °F 30.1 in North 7 mph 17 mph 91 % 0 in
03:32 48 °F 45.5 °F 30.1 in North 7 mph 15 mph 91 % 0 in
03:37 47.8 °F 45.3 °F 30.1 in North 8 mph 15 mph 91 % 0 in
03:42 47.7 °F 45 °F 30.1 in NNW 8 mph 17 mph 90 % 0 in
03:47 47.5 °F 44.8 °F 30.1 in NNE 7 mph 17 mph 90 % 0 in
03:52 47.1 °F 44.4 °F 30.1 in NNW 5 mph 17 mph 90 % 0 in
03:57 46.9 °F 44.2 °F 30.1 in North 10 mph 17 mph 90 % 0 in
04:02 46.9 °F 44.4 °F 30.1 in NNW 10 mph 17 mph 91 % 0 in
04:12 46.9 °F 44.4 °F 30.1 in NW 5 mph 15 mph 91 % 0 in
04:17 46.9 °F 44.4 °F 30.1 in NNW 7 mph 16 mph 91 % 0 in
04:22 46.8 °F 44.2 °F 30.1 in NNW 9 mph 16 mph 91 % 0 in
04:32 46.8 °F 44.2 °F 30.2 in North 7 mph 16 mph 91 % 0 in
04:42 46.6 °F 44.4 °F 30.2 in NNE 12 mph 14 mph 92 % 0 in
04:47 46.6 °F 44.4 °F 30.2 in NNE 12 mph 17 mph 92 % 0 in
04:52 46.6 °F 44.4 °F 30.2 in North 13 mph 17 mph 92 % 0 in
04:57 46.4 °F 44.2 °F 30.2 in NE 12 mph 17 mph 92 % 0 in
05:02 46.4 °F 44.2 °F 30.2 in NNE 9 mph 17 mph 92 % 0 in
05:12 46.4 °F 44.2 °F 30.2 in NNW 12 mph 14 mph 92 % 0 in
05:17 46.4 °F 44.2 °F 30.2 in North 11 mph 16 mph 92 % 0 in
05:22 46.4 °F 44.2 °F 30.2 in NNW 3 mph 16 mph 92 % 0 in
05:32 46.4 °F 44.2 °F 30.2 in NW 5 mph 14 mph 92 % 0 in
05:42 46.4 °F 44.2 °F 30.2 in North 7 mph 15 mph 92 % 0 in
05:47 46.4 °F 44.2 °F 30.2 in NNW 8 mph 15 mph 92 % 0 in
05:52 46.2 °F 44.1 °F 30.2 in NNW 7 mph 15 mph 92 % 0 in
05:57 46.2 °F 43.7 °F 30.2 in WNW 3 mph 15 mph 91 % 0 in
06:02 46 °F 43.5 °F 30.2 in NNW 4 mph 15 mph 91 % 0 in
06:07 46 °F 43.5 °F 30.2 in NNW 6 mph 16 mph 91 % 0 in
06:12 46 °F 43.9 °F 30.2 in NW 5 mph 16 mph 92 % 0 in
06:17 45.9 °F 43.7 °F 30.2 in NNW 7 mph 16 mph 92 % 0 in
06:22 45.9 °F 43.3 °F 30.2 in NNE 8 mph 12 mph 91 % 0 in
06:32 45.7 °F 43.2 °F 30.2 in NNW 6 mph 12 mph 91 % 0 in
06:37 45.5 °F 43 °F 30.2 in NNW 3 mph 12 mph 91 % 0 in
06:42 45.3 °F 43.2 °F 30.2 in North 2 mph 10 mph 92 % 0 in
06:47 45.1 °F 43 °F 30.2 in North 4 mph 10 mph 92 % 0 in
06:52 45.1 °F 43 °F 30.2 in NNW 3 mph 6 mph 92 % 0 in
06:57 45 °F 42.8 °F 30.2 in NNW 2 mph 6 mph 92 % 0 in
07:02 44.8 °F 42.6 °F 30.2 in NNW 2 mph 6 mph 92 % 0 in
07:12 44.4 °F 42.4 °F 30.2 in NNE 2 mph 4 mph 93 % 0 in
07:17 44.4 °F 42.4 °F 30.2 in NNW 1 mph 4 mph 93 % 0 in
07:22 44.2 °F 42.3 °F 30.2 in North 2 mph 4 mph 93 % 0 in
07:32 44.2 °F 42.3 °F 30.2 in Calm   4 mph 93 % 0 in
07:42 44.4 °F 42.4 °F 30.2 in NE 2 mph 4 mph 93 % 0 in
07:52 44.6 °F 42.6 °F 30.2 in Calm   6 mph 93 % 0 in
07:57 44.6 °F 42.4 °F 30.2 in Calm   5 mph 92 % 0 in
08:02 44.4 °F 42.3 °F 30.2 in Calm   5 mph 92 % 0 in
08:07 44.2 °F 42.1 °F 30.2 in Calm   2 mph 92 % 0 in
08:12 44.4 °F 42.4 °F 30.2 in Calm   2 mph 93 % 0 in
08:17 44.6 °F 42.6 °F 30.2 in WNW 1 mph 2 mph 93 % 0 in
08:22 44.8 °F 42.8 °F 30.2 in NW 1 mph 2 mph 93 % 0 in
08:32 45.7 °F 43.5 °F 30.3 in Calm   2 mph 92 % 0 in
08:42 46 °F 43.5 °F 30.3 in NW 1 mph 2 mph 91 % 0 in
08:52 46.4 °F 43.7 °F 30.3 in North 1 mph 5 mph 90 % 0 in
09:02 46.9 °F 43.9 °F 30.3 in West 1 mph 5 mph 89 % 0 in
09:12 47.1 °F 44.1 °F 30.3 in NW 2 mph 5 mph 89 % 0 in
09:17 47.1 °F 43.7 °F 30.3 in NW 3 mph 5 mph 88 % 0 in
09:22 47.3 °F 43.9 °F 30.3 in NW 2 mph 5 mph 88 % 0 in
09:32 47.5 °F 44.1 °F 30.3 in NNW 2 mph 5 mph 88 % 0 in
09:42 47.8 °F 44.2 °F 30.3 in NW 3 mph 6 mph 87 % 0 in
09:47 48.4 °F 44.8 °F 30.3 in NNW 2 mph 6 mph 87 % 0 in
09:52 48.6 °F 44.6 °F 30.3 in Calm   6 mph 86 % 0 in
09:57 48.9 °F 45 °F 30.3 in WNW 1 mph 6 mph 86 % 0 in
10:02 49.1 °F 44.8 °F 30.3 in NW 2 mph 5 mph 85 % 0 in
10:12 49.3 °F 45 °F 30.3 in NW 4 mph 7 mph 85 % 0 in
10:17 49.3 °F 45 °F 30.3 in NW 3 mph 9 mph 85 % 0 in
10:22 49.3 °F 44.6 °F 30.3 in NNW 4 mph 9 mph 84 % 0 in
10:27 49.3 °F 44.6 °F 30.3 in NW 2 mph 9 mph 84 % 0 in
10:32 49.3 °F 44.6 °F 30.3 in NW 3 mph 8 mph 84 % 0 in
10:37 49.3 °F 45 °F 30.3 in NW 6 mph 8 mph 85 % 0 in
10:42 49.6 °F 45.3 °F 30.3 in NW 4 mph 9 mph 85 % 0 in
10:47 50.2 °F 45.1 °F 30.3 in NNW 5 mph 9 mph 83 % 0 in
10:52 50.4 °F 45.1 °F 30.3 in WNW 4 mph 9 mph 82 % 0 in
11:02 51.3 °F 46.2 °F 30.3 in NNW 6 mph 8 mph 83 % 0 in
11:12 52.2 °F 46.6 °F 30.3 in Calm   7 mph 81 % 0 in
11:22 53.1 °F 46.8 °F 30.3 in NNE 2 mph 7 mph 79 % 0 in
11:32 53.1 °F 46.4 °F 30.3 in NNW 6 mph 9 mph 78 % 0 in
11:37 53.2 °F 46.2 °F 30.3 in NW 8 mph 9 mph 77 % 0 in
11:42 53.4 °F 46.8 °F 30.3 in ENE 3 mph 8 mph 78 % 0 in
11:47 53.8 °F 46 °F 30.3 in NW 4 mph 9 mph 75 % 0 in
11:57 54.5 °F 46.8 °F 30.3 in North 7 mph 10 mph 75 % 0 in
12:02 54.7 °F 46.6 °F 30.3 in NW 8 mph 10 mph 74 % 0 in
12:12 55 °F 46.2 °F 30.3 in NNW 3 mph 12 mph 72 % 0 in
12:17 55.6 °F 47.8 °F 30.3 in NW 4 mph 12 mph 75 % 0 in
12:22 55.6 °F 47.1 °F 30.3 in NNE 6 mph 12 mph 73 % 0 in
12:32 55.9 °F 47.5 °F 30.3 in North 5 mph 13 mph 73 % 0 in
12:42 55.9 °F 46.2 °F 30.3 in NNW 5 mph 12 mph 70 % 0 in
12:52 56.1 °F 46.4 °F 30.3 in NNW 13 mph 16 mph 70 % 0 in
12:57 56.3 °F 46.2 °F 30.3 in NNW 9 mph 16 mph 69 % 0 in
13:02 56.5 °F 46.4 °F 30.3 in North 8 mph 16 mph 69 % 0 in
13:12 56.8 °F 45.7 °F 30.3 in North 6 mph 16 mph 66 % 0 in
13:17 57.4 °F 46 °F 30.3 in NW 5 mph 16 mph 66 % 0 in
13:22 57.2 °F 45.5 °F 30.3 in NNE 11 mph 16 mph 65 % 0 in
13:27 57.2 °F 45.9 °F 30.3 in NNW 3 mph 16 mph 66 % 0 in
13:32 57.6 °F 45.5 °F 30.3 in NE 8 mph 16 mph 64 % 0 in
13:37 57.6 °F 46.2 °F 30.3 in NNW 6 mph 16 mph 66 % 0 in
13:42 57.6 °F 45.9 °F 30.3 in WNW 6 mph 16 mph 65 % 0 in
13:47 57.7 °F 45.7 °F 30.3 in NNE 5 mph 17 mph 64 % 0 in
13:52 57.9 °F 46.2 °F 30.3 in NNW 10 mph 17 mph 65 % 0 in
13:57 57.9 °F 45.9 °F 30.3 in NE 6 mph 17 mph 64 % 0 in
14:02 58.1 °F 45.5 °F 30.3 in NNE 6 mph 15 mph 63 % 0 in
14:12 58.5 °F 46.8 °F 30.3 in North 11 mph 13 mph 65 % 0 in
14:17 58.5 °F 46.4 °F 30.3 in North 12 mph 13 mph 64 % 0 in
14:22 58.6 °F 46 °F 30.3 in NNW 6 mph 16 mph 63 % 0 in
14:27 58.6 °F 45.3 °F 30.3 in NE 3 mph 16 mph 61 % 0 in
14:32 58.5 °F 44.6 °F 30.3 in NNW 8 mph 16 mph 60 % 0 in
14:42 58.6 °F 45.3 °F 30.4 in WNW 8 mph 20 mph 61 % 0 in
14:52 58.6 °F 44.4 °F 30.4 in North 7 mph 20 mph 59 % 0 in
14:57 58.6 °F 45.7 °F 30.4 in NNW 11 mph 18 mph 62 % 0 in
15:02 58.8 °F 46.2 °F 30.4 in NNE 7 mph 18 mph 63 % 0 in
15:12 59.2 °F 45.7 °F 30.4 in NNW 10 mph 18 mph 61 % 0 in
15:22 58.8 °F 44.6 °F 30.4 in NNW 8 mph 18 mph 59 % 0 in
15:32 59 °F 44.2 °F 30.4 in NNW 6 mph 18 mph 58 % 0 in
15:42 59.4 °F 45.9 °F 30.4 in NNW 7 mph 15 mph 61 % 0 in
15:47 59.4 °F 44.1 °F 30.4 in North 11 mph 13 mph 57 % 0 in
15:52 59.4 °F 44.6 °F 30.4 in NNW 7 mph 14 mph 58 % 0 in
15:57 59.4 °F 45 °F 30.4 in NNW 5 mph 15 mph 59 % 0 in
16:02 59.2 °F 43.5 °F 30.4 in NNW 8 mph 15 mph 56 % 0 in
16:07 59.4 °F 44.1 °F 30.4 in North 10 mph 15 mph 57 % 0 in
16:12 59.4 °F 43.7 °F 30.4 in WNW 8 mph 15 mph 56 % 0 in
16:17 59.5 °F 44.8 °F 30.4 in North 7 mph 15 mph 58 % 0 in
16:22 59.7 °F 45.3 °F 30.4 in NNE 6 mph 15 mph 59 % 0 in
16:32 59.5 °F 44.2 °F 30.4 in NNW 4 mph 14 mph 57 % 0 in
16:42 59.5 °F 45.7 °F 30.4 in NNE 6 mph 14 mph 60 % 0 in
16:47 59.4 °F 44.1 °F 30.4 in NNW 7 mph 14 mph 57 % 0 in
16:52 59.4 °F 44.6 °F 30.4 in NNE 8 mph 12 mph 58 % 0 in
16:57 59.4 °F 45 °F 30.4 in NNE 7 mph 13 mph 59 % 0 in
17:02 59.4 °F 41.7 °F 30.4 in NNE 8 mph 15 mph 52 % 0 in
17:07 59.4 °F 42.3 °F 30.4 in North 6 mph 15 mph 53 % 0 in
17:12 59.4 °F 41.2 °F 30.4 in NNW 10 mph 15 mph 51 % 0 in
17:17 59.2 °F 41 °F 30.4 in NNE 6 mph 16 mph 51 % 0 in
17:22 59.2 °F 41.5 °F 30.4 in North 11 mph 16 mph 52 % 0 in
17:32 59 °F 41.4 °F 30.4 in North 6 mph 15 mph 52 % 0 in
17:37 58.8 °F 42.3 °F 30.4 in NNE 3 mph 15 mph 54 % 0 in
17:42 58.6 °F 41.5 °F 30.4 in North 5 mph 13 mph 53 % 0 in
17:47 58.5 °F 42.4 °F 30.4 in North 2 mph 14 mph 55 % 0 in
17:52 58.5 °F 41.4 °F 30.4 in NNE 3 mph 14 mph 53 % 0 in
18:02 57.9 °F 40.8 °F 30.4 in NE 5 mph 13 mph 53 % 0 in
18:07 57.7 °F 41.7 °F 30.4 in NNE 5 mph 16 mph 55 % 0 in
18:12 57.6 °F 41.5 °F 30.4 in NNW 4 mph 16 mph 55 % 0 in
18:17 57.4 °F 41.4 °F 30.4 in NE 4 mph 16 mph 55 % 0 in
18:22 57 °F 41.5 °F 30.4 in NNW 6 mph 12 mph 56 % 0 in
18:27 56.8 °F 41.4 °F 30.4 in North 3 mph 10 mph 56 % 0 in
18:32 56.7 °F 41.5 °F 30.4 in NW 1 mph 10 mph 57 % 0 in
18:37 56.5 °F 41.4 °F 30.4 in NNW 5 mph 9 mph 57 % 0 in
18:42 56.1 °F 41.2 °F 30.4 in NNW 4 mph 9 mph 57 % 0 in
18:52 55.8 °F 41.2 °F 30.4 in North 3 mph 9 mph 58 % 0 in
19:02 55.2 °F 40.6 °F 30.4 in North 4 mph 7 mph 58 % 0 in
19:07 55 °F 41 °F 30.4 in NE 3 mph 8 mph 59 % 0 in
19:17 54.7 °F 41 °F 30.4 in North 4 mph 7 mph 60 % 0 in
19:22 54.3 °F 41.2 °F 30.4 in NNW 2 mph 7 mph 61 % 0 in
19:32 54 °F 41.2 °F 30.4 in NNE 1 mph 5 mph 62 % 0 in
19:37 53.8 °F 41 °F 30.4 in NNE 2 mph 5 mph 62 % 0 in
19:42 53.6 °F 40.8 °F 30.4 in North 1 mph 5 mph 62 % 0 in
19:47 53.4 °F 41.2 °F 30.4 in NNW 2 mph 5 mph 63 % 0 in
19:52 53.2 °F 41 °F 30.4 in North 2 mph 5 mph 63 % 0 in
20:02 52.7 °F 40.8 °F 30.4 in NNW 1 mph 5 mph 64 % 0 in
20:07 52.5 °F 41.2 °F 30.4 in NNE 1 mph 4 mph 65 % 0 in
20:12 52.2 °F 41.2 °F 30.4 in North 2 mph 3 mph 66 % 0 in
20:17 52 °F 41.4 °F 30.4 in North 2 mph 3 mph 67 % 0 in
20:22 51.8 °F 41.2 °F 30.4 in NNE 2 mph 3 mph 67 % 0 in
20:32 52 °F 41.7 °F 30.4 in NNE 4 mph 6 mph 68 % 0 in
20:37 52 °F 41.7 °F 30.4 in NNE 4 mph 6 mph 68 % 0 in
20:42 52 °F 42.1 °F 30.4 in NNE 5 mph 6 mph 69 % 0 in
20:47 52 °F 42.1 °F 30.4 in NNE 1 mph 7 mph 69 % 0 in
20:57 51.6 °F 41.7 °F 30.4 in North 3 mph 7 mph 69 % 0 in
21:02 51.4 °F 41.9 °F 30.4 in NNE 3 mph 6 mph 70 % 0 in
21:07 51.1 °F 42.1 °F 30.4 in North 1 mph 6 mph 71 % 0 in
21:12 50.5 °F 41.9 °F 30.4 in NNW 1 mph 4 mph 72 % 0 in
21:17 50.7 °F 41.7 °F 30.5 in NNW 1 mph 3 mph 71 % 0 in
21:27 50.9 °F 41.5 °F 30.5 in NNW 3 mph 5 mph 70 % 0 in
21:32 51.1 °F 41.2 °F 30.5 in NNW 3 mph 5 mph 69 % 0 in
21:37 51.1 °F 41.2 °F 30.5 in North 5 mph 6 mph 69 % 0 in
21:42 50.9 °F 41.2 °F 30.5 in North 3 mph 8 mph 69 % 0 in
21:47 50.7 °F 41 °F 30.5 in NNE 5 mph 8 mph 69 % 0 in
21:52 50.9 °F 41.5 °F 30.5 in NNW 5 mph 10 mph 70 % 0 in
21:57 50.7 °F 41.7 °F 30.5 in NNE 8 mph 10 mph 71 % 0 in
22:02 50.9 °F 42.6 °F 30.5 in NNW 4 mph 10 mph 73 % 0 in
22:07 51.3 °F 43.3 °F 30.5 in NNE 3 mph 10 mph 74 % 0 in
22:12 51.3 °F 43.5 °F 30.5 in North 4 mph 12 mph 75 % 0 in
22:17 51.1 °F 43.7 °F 30.5 in NE 5 mph 12 mph 76 % 0 in
22:22 50.7 °F 43.7 °F 30.5 in North 9 mph 12 mph 77 % 0 in
22:32 50.5 °F 44.2 °F 30.5 in NE 4 mph 13 mph 79 % 0 in
22:37 50.5 °F 44.2 °F 30.5 in NE 6 mph 13 mph 79 % 0 in
22:42 50.4 °F 44.1 °F 30.5 in NNE 8 mph 13 mph 79 % 0 in
22:47 50.4 °F 44.4 °F 30.5 in NNW 6 mph 13 mph 80 % 0 in
22:52 50.2 °F 44.6 °F 30.5 in NE 3 mph 11 mph 81 % 0 in
22:57 50.2 °F 45 °F 30.5 in North 1 mph 13 mph 82 % 0 in
23:02 49.8 °F 44.6 °F 30.5 in NNW 3 mph 13 mph 82 % 0 in
23:07 49.6 °F 44.8 °F 30.5 in NW 6 mph 13 mph 83 % 0 in
23:12 49.6 °F 44.8 °F 30.5 in NNE 4 mph 11 mph 83 % 0 in
23:17 49.5 °F 44.8 °F 30.5 in NNE 3 mph 11 mph 84 % 0 in
23:22 49.3 °F 44.6 °F 30.5 in NW 1 mph 11 mph 84 % 0 in
23:27 49.1 °F 44.8 °F 30.5 in NNE 4 mph 11 mph 85 % 0 in
23:32 48.9 °F 44.6 °F 30.5 in NNE 7 mph 11 mph 85 % 0 in
23:37 48.9 °F 44.6 °F 30.5 in NNE 3 mph 11 mph 85 % 0 in
23:42 48.7 °F 44.4 °F 30.5 in NE 1 mph 8 mph 85 % 0 in
23:47 48.4 °F 44.4 °F 30.5 in North 2 mph 8 mph 86 % 0 in
23:52 48.4 °F 44.4 °F 30.5 in NNE 2 mph 9 mph 86 % 0 in
23:57 48.2 °F 44.2 °F 30.5 in NNE 2 mph 9 mph 86 % 0 in
Meteo18
Compliments of Weather Underground - 4 mb

Script developed by  Jim McMurry - jmcmurry@mwt.net Adapted for the template by  Wim van der Kuil - Leuven-Template.eu

You find our weather info also at:

European Weather Network

Weather Underground

Equipment we use:

Weather-station
Davis Vue

Weather-program
Meteohub

Weather-server
Raspberry PI 2 B+

Provider
1 and 1

Davis Vue

Meteohub

Raspberry PI 2 B+

1 and 1